�N����,����,�~����,�C��,���x,�C��,����,���ϕ���,�ő�u�ԕ���,�ő厞����,���˗�,�I�_���x,�n�����x,�ő啗���N��,DTYPE
"16/04/26","00:10",0.0,13.6,85.0,1012.8,317.3,1.5,1.9,317.5,0.00,11.2,16.8,"00:00:32",1
"16/04/26","00:20",0.0,13.3,85.9,1012.8,300.5,1.0,1.2,308.4,0.00,11.0,16.9,"00:14:08",1
"16/04/26","00:30",0.0,13.1,87.0,1012.8,318.6,1.3,1.9,337.7,0.00,11.0,16.9,"00:28:08",1
"16/04/26","00:40",0.0,13.0,87.4,1012.6,306.7,1.1,1.8,323.2,0.00,11.0,16.7,"00:32:24",1
"16/04/26","00:50",0.0,12.9,88.0,1012.3,312.6,1.2,1.6,324.6,0.00,11.0,16.6,"00:42:16",1
"16/04/26","01:00",0.0,12.7,88.5,1012.6,306.2,1.2,1.4,311.1,0.00,10.9,16.6,"00:55:28",1
"16/04/26","01:10",0.0,12.7,88.8,1012.8,304.3,1.3,1.9,302.5,0.00,10.9,16.7,"01:02:48",1
"16/04/26","01:20",0.0,12.6,88.6,1012.3,318.2,1.1,1.9,326.6,0.00,10.8,16.4,"01:13:28",1
"16/04/26","01:30",0.0,12.5,89.1,1012.3,293.6,0.5,1.0,320.8,0.00,10.8,16.4,"01:20:02",1
"16/04/26","01:40",0.0,12.4,89.6,1012.3,306.9,0.7,1.4,323.9,0.00,10.8,16.4,"01:30:40",1
"16/04/26","01:50",0.0,12.4,89.7,1012.8,294.1,0.8,1.3,324.7,0.00,10.8,16.4,"01:47:04",1
"16/04/26","02:00",0.0,12.4,90.0,1013.0,301.7,0.7,1.8,313.3,0.00,10.8,16.2,"01:57:28",1
"16/04/26","02:10",0.0,12.1,90.2,1012.6,321.6,1.6,2.2,317.1,0.00,10.6,16.1,"02:02:08",1
"16/04/26","02:20",0.0,12.1,90.9,1012.6,317.0,1.1,2.0,322.8,0.00,10.7,16.3,"02:10:40",1
"16/04/26","02:30",0.0,12.1,91.0,1012.8,312.1,1.1,2.1,307.7,0.00,10.7,16.2,"02:25:28",1
"16/04/26","02:40",0.0,12.1,91.2,1012.6,309.0,1.2,2.0,307.4,0.00,10.7,16.0,"02:31:04",1
"16/04/26","02:50",0.0,12.3,91.9,1012.6,307.7,1.6,3.4,315.8,0.00,11.1,16.0,"02:49:56",1
"16/04/26","03:00",0.0,12.5,91.0,1012.8,297.0,1.1,3.1,313.9,0.00,11.1,16.1,"02:50:08",1
"16/04/26","03:10",0.0,12.4,90.6,1012.3,292.1,1.2,1.6,294.6,0.00,10.9,15.9,"03:05:44",1
"16/04/26","03:20",0.0,12.5,90.6,1012.8,297.9,1.2,1.7,300.9,0.00,11.0,15.7,"03:13:44",1
"16/04/26","03:30",0.0,12.4,90.4,1012.3,301.6,1.5,2.1,316.1,0.00,10.9,15.8,"03:24:16",1
"16/04/26","03:40",0.0,12.4,90.3,1012.3,305.6,1.3,2.0,337.0,0.00,10.9,15.7,"03:37:36",1
"16/04/26","03:50",0.0,12.2,90.3,1012.3,314.7,1.5,2.2,330.8,0.00,10.7,15.7,"03:46:24",1
"16/04/26","04:00",0.0,11.9,90.6,1012.6,305.2,1.2,1.9,323.2,0.00,10.5,15.6,"03:52:40",1
"16/04/26","04:10",0.0,11.8,91.3,1012.1,288.7,1.1,1.8,295.0,0.00,10.5,15.5,"04:04:48",1
"16/04/26","04:20",0.0,11.7,91.5,1012.3,305.4,1.2,1.8,320.4,0.00,10.4,15.4,"04:14:48",1
"16/04/26","04:30",0.0,11.6,91.7,1012.3,305.7,1.2,2.1,310.6,0.00,10.3,15.5,"04:25:20",1
"16/04/26","04:40",0.0,11.4,92.2,1012.3,292.3,1.2,2.0,305.8,0.00,10.2,15.2,"04:38:58",1
"16/04/26","04:50",0.0,11.7,92.0,1012.3,289.6,1.6,2.1,316.0,0.00,10.5,15.2,"04:40:02",1
"16/04/26","05:00",0.0,11.9,91.0,1012.6,285.1,1.3,1.8,305.8,0.00,10.5,15.4,"04:52:32",1
"16/04/26","05:10",0.0,11.9,90.1,1012.8,289.4,1.2,2.0,300.4,0.00,10.4,15.3,"05:04:50",1
"16/04/26","05:20",0.0,11.9,89.9,1012.8,298.3,1.5,2.0,307.8,0.00,10.3,15.3,"05:10:02",1
"16/04/26","05:30",0.0,11.9,89.5,1012.8,293.1,1.2,1.8,316.0,0.00,10.3,15.4,"05:20:16",1
"16/04/26","05:40",0.0,11.8,89.0,1012.8,312.3,1.2,2.2,320.3,0.00,10.1,15.2,"05:39:16",1
"16/04/26","05:50",0.0,11.6,90.5,1013.0,326.6,1.7,2.1,328.5,0.00,10.1,15.2,"05:40:32",1
"16/04/26","06:00",0.0,11.8,91.4,1012.8,281.6,0.8,1.1,303.3,0.01,10.5,15.2,"05:59:12",1
"16/04/26","06:10",0.0,12.7,89.9,1012.8,315.0,1.2,1.8,311.0,0.01,11.1,15.2,"06:02:16",1
"16/04/26","06:20",0.0,13.3,88.1,1013.0,328.7,1.3,2.0,338.0,0.02,11.4,15.3,"06:14:32",1
"16/04/26","06:30",0.0,13.9,87.9,1013.0,20.5,0.5,1.4,335.5,0.03,12.0,15.1,"06:20:16",1
"16/04/26","06:40",0.0,14.7,84.4,1012.8,320.9,1.0,1.7,326.5,0.05,12.1,15.2,"06:35:44",1
"16/04/26","06:50",0.0,15.2,82.1,1013.3,306.9,1.0,2.0,328.4,0.07,12.2,15.3,"06:41:12",1
"16/04/26","07:00",0.0,15.9,79.6,1013.0,75.6,0.3,0.9,113.5,0.11,12.4,15.2,"06:58:56",1
"16/04/26","07:10",0.0,16.6,77.3,1013.3,7.0,1.0,1.4,348.2,0.13,12.7,15.3,"07:06:00",1
"16/04/26","07:20",0.0,17.0,75.2,1013.8,339.9,1.0,1.9,340.9,0.16,12.6,15.4,"07:17:44",1
"16/04/26","07:30",0.0,17.9,71.7,1013.3,259.1,0.3,1.2,335.8,0.18,12.8,15.5,"07:20:32",1
"16/04/26","07:40",0.0,18.6,67.1,1013.3,167.6,0.3,1.1,120.0,0.21,12.4,15.4,"07:32:24",1
"16/04/26","07:50",0.0,19.4,64.9,1013.0,169.8,0.1,0.8,130.2,0.24,12.7,15.7,"07:46:00",1
"16/04/26","08:00",0.0,19.6,61.6,1012.3,170.6,0.7,1.6,178.8,0.26,12.1,15.7,"07:56:56",1
"16/04/26","08:10",0.0,19.7,62.2,1012.3,217.3,0.7,2.1,227.0,0.29,12.3,15.8,"08:03:52",1
"16/04/26","08:20",0.0,20.0,62.1,1012.1,215.1,1.0,2.7,199.0,0.32,12.6,15.9,"08:18:32",1
"16/04/26","08:30",0.0,19.8,58.9,1011.9,114.9,1.1,2.6,54.6,0.34,11.6,16.1,"08:28:32",1
"16/04/26","08:40",0.0,20.5,61.0,1011.4,106.0,0.8,2.7,107.7,0.36,12.8,16.2,"08:36:16",1
"16/04/26","08:50",0.0,20.8,57.7,1011.4,116.8,1.1,2.8,131.9,0.39,12.2,16.6,"08:48:08",1
"16/04/26","09:00",0.0,20.8,58.0,1011.2,112.6,1.6,2.8,92.8,0.41,12.3,16.7,"08:51:36",1
"16/04/26","09:10",0.0,21.1,58.8,1010.9,150.3,1.6,2.8,176.2,0.43,12.8,16.8,"09:01:12",1
"16/04/26","09:20",0.0,21.6,54.2,1011.2,163.7,1.0,2.5,184.0,0.46,12.0,17.1,"09:18:48",1
"16/04/26","09:30",0.0,21.9,54.1,1011.2,345.8,0.8,2.4,0.7,0.47,12.2,17.3,"09:27:52",1
"16/04/26","09:40",0.0,22.1,54.3,1010.7,106.8,1.2,2.7,115.1,0.49,12.5,17.4,"09:38:24",1
"16/04/26","09:50",0.0,22.2,53.0,1010.7,155.0,1.3,3.1,149.8,0.51,12.2,17.7,"09:42:32",1
"16/04/26","10:00",0.0,22.5,50.9,1010.7,140.0,1.7,4.0,187.7,0.53,11.9,18.0,"09:57:12",1
"16/04/26","10:10",0.0,22.8,50.6,1010.7,166.5,1.3,2.6,128.2,0.55,12.1,18.0,"10:03:04",1
"16/04/26","10:20",0.0,23.0,51.2,1010.2,218.4,1.0,3.6,225.1,0.56,12.4,18.2,"10:16:24",1
"16/04/26","10:30",0.0,23.5,49.5,1010.4,158.1,1.5,3.6,140.5,0.55,12.4,18.7,"10:26:40",1
"16/04/26","10:40",0.0,23.5,49.7,1010.7,191.3,1.7,2.7,144.8,0.55,12.4,18.7,"10:30:16",1
"16/04/26","10:50",0.0,24.4,46.1,1010.2,166.0,0.6,1.9,356.0,0.59,12.1,19.2,"10:48:56",1
"16/04/26","11:00",0.0,24.5,45.5,1009.0,169.6,1.1,3.3,148.9,0.60,12.0,19.4,"10:55:28",1
"16/04/26","11:10",0.0,24.6,46.3,1009.5,55.1,1.2,2.7,120.2,0.61,12.4,19.7,"11:09:20",1
"16/04/26","11:20",0.0,24.8,42.3,1009.5,186.1,1.7,2.9,228.2,0.61,11.2,20.0,"11:19:28",1
"16/04/26","11:30",0.0,25.0,43.9,1009.3,358.9,1.3,3.5,344.8,0.62,11.9,20.0,"11:25:44",1
"16/04/26","11:40",0.0,25.3,44.3,1009.5,335.6,1.7,3.7,347.7,0.62,12.3,20.3,"11:34:16",1
"16/04/26","11:50",0.0,26.1,39.3,1009.5,7.0,0.8,3.5,340.1,0.63,11.2,20.5,"11:42:00",1
"16/04/26","12:00",0.0,26.3,40.2,1009.3,87.7,0.7,2.6,104.6,0.63,11.8,20.9,"11:56:40",1
"16/04/26","12:10",0.0,26.7,39.9,1009.3,92.5,0.6,1.4,136.3,0.62,12.0,21.1,"12:01:52",1
"16/04/26","12:20",0.0,26.0,37.8,1009.0,141.8,1.8,3.5,130.0,0.63,10.6,21.2,"12:17:52",1
"16/04/26","12:30",0.0,26.6,36.8,1008.6,140.3,1.0,2.8,150.9,0.59,10.7,21.3,"12:21:44",1
"16/04/26","12:40",0.0,26.7,36.1,1008.3,161.1,2.0,4.0,131.0,0.60,10.5,21.5,"12:32:08",1
"16/04/26","12:50",0.0,26.4,36.3,1008.1,163.6,2.2,4.9,228.2,0.59,10.3,21.5,"12:43:28",1
"16/04/26","13:00",0.0,26.7,36.8,1007.8,180.0,2.8,5.1,129.3,0.59,10.8,21.9,"12:59:52",1
"16/04/26","13:10",0.0,26.7,41.2,1007.6,156.6,2.2,5.7,190.2,0.56,12.5,21.9,"13:06:08",1
"16/04/26","13:20",0.0,27.1,35.4,1007.6,176.4,1.8,3.4,220.5,0.55,10.5,22.1,"13:12:32",1
"16/04/26","13:30",0.0,28.1,36.4,1007.6,130.6,0.8,2.2,125.0,0.57,11.8,22.3,"13:25:04",1
"16/04/26","13:40",0.0,27.7,34.7,1007.8,165.0,1.6,3.1,123.6,0.56,10.8,22.3,"13:32:24",1
"16/04/26","13:50",0.0,27.8,37.4,1008.1,167.6,1.3,3.9,125.3,0.55,12.0,22.4,"13:40:02",1
"16/04/26","14:00",0.0,27.8,35.4,1007.8,150.0,1.5,3.7,123.9,0.53,11.2,22.6,"13:50:08",1
"16/04/26","14:10",0.0,27.5,33.4,1007.8,186.8,2.5,5.1,168.7,0.51,10.0,22.5,"14:03:20",1
"16/04/26","14:20",0.0,27.9,33.8,1007.6,218.7,1.5,3.3,145.1,0.50,10.6,22.8,"14:18:24",1
"16/04/26","14:30",0.0,27.7,34.0,1007.4,165.9,2.6,4.4,212.0,0.45,10.5,22.7,"14:21:44",1
"16/04/26","14:40",0.0,27.8,34.3,1006.9,143.6,2.0,5.0,120.7,0.43,10.7,22.7,"14:33:12",1
"16/04/26","14:50",0.0,28.1,35.4,1006.9,138.7,2.1,4.3,122.7,0.44,11.4,22.8,"14:44:48",1
"16/04/26","15:00",0.0,27.7,32.2,1006.4,115.1,2.2,4.1,120.9,0.41,9.7,23.0,"14:50:08",1
"16/04/26","15:10",0.0,28.3,29.8,1006.4,112.7,1.1,2.8,120.1,0.39,9.0,23.0,"15:06:48",1
"16/04/26","15:20",0.0,28.1,30.4,1006.4,115.1,2.1,3.7,94.3,0.37,9.1,23.0,"15:14:16",1
"16/04/26","15:30",0.0,28.0,33.1,1006.2,115.2,1.8,2.9,99.8,0.34,10.3,22.9,"15:22:00",1
"16/04/26","15:40",0.0,28.2,30.4,1006.2,144.0,2.1,4.0,116.6,0.32,9.2,23.0,"15:33:28",1
"16/04/26","15:50",0.0,28.4,30.1,1006.0,207.3,1.5,3.7,211.4,0.29,9.3,22.9,"15:48:56",1
"16/04/26","16:00",0.0,28.2,29.5,1006.2,170.6,1.6,4.0,206.4,0.26,8.8,22.8,"15:50:56",1
"16/04/26","16:10",0.0,28.0,29.0,1005.7,183.1,0.8,2.4,234.8,0.19,8.4,22.9,"16:07:28",1
"16/04/26","16:20",0.0,27.0,31.7,1005.7,148.5,1.2,2.9,121.8,0.14,8.8,22.9,"16:19:20",1
"16/04/26","16:30",0.0,27.3,33.1,1006.0,162.1,1.6,3.4,146.1,0.20,9.7,22.8,"16:21:04",1
"16/04/26","16:40",0.0,27.5,30.0,1005.7,187.4,1.2,2.4,146.6,0.16,8.4,22.6,"16:34:08",1
"16/04/26","16:50",0.0,27.5,30.5,1005.7,217.0,1.1,2.2,252.9,0.13,8.7,22.7,"16:44:56",1
"16/04/26","17:00",0.0,27.2,31.9,1005.5,160.8,1.5,2.9,120.6,0.11,9.1,22.5,"16:59:28",1
"16/04/26","17:10",0.0,26.9,33.2,1005.5,118.9,0.7,1.8,137.7,0.06,9.4,22.5,"17:01:04",1
"16/04/26","17:20",0.0,26.5,38.3,1005.5,354.9,0.6,1.3,122.0,0.03,11.2,22.3,"17:10:16",1
"16/04/26","17:30",0.0,26.2,35.9,1005.7,40.6,0.6,1.3,113.8,0.03,10.0,22.3,"17:25:44",1
"16/04/26","17:40",0.0,25.9,39.7,1006.0,335.8,1.1,1.9,339.1,0.04,11.2,22.1,"17:35:28",1
"16/04/26","17:50",0.0,25.5,42.4,1005.7,286.8,0.7,1.6,338.4,0.03,11.8,22.2,"17:40:16",1
"16/04/26","18:00",0.0,24.9,42.6,1006.0,273.8,0.6,1.8,257.5,0.02,11.4,21.7,"17:57:12",1
"16/04/26","18:10",0.0,24.1,45.3,1006.4,288.1,1.3,2.4,308.3,0.00,11.6,21.7,"18:04:24",1
"16/04/26","18:20",0.0,23.5,46.4,1006.4,262.8,1.3,2.8,316.8,0.00,11.4,21.7,"18:19:12",1
"16/04/26","18:30",0.0,23.1,50.2,1006.4,321.9,1.3,2.7,344.7,0.00,12.2,21.6,"18:28:56",1
"16/04/26","18:40",0.0,22.3,50.7,1007.1,305.3,1.0,1.8,334.5,0.00,11.6,21.4,"18:31:04",1
"16/04/26","18:50",0.0,21.8,52.7,1007.1,320.4,1.2,2.0,316.3,0.00,11.8,21.4,"18:47:20",1
"16/04/26","19:00",0.0,21.1,56.5,1007.4,324.1,1.3,2.8,334.0,0.00,12.2,21.3,"18:53:28",1
"16/04/26","19:10",0.0,20.4,58.1,1007.8,302.1,1.2,1.8,293.2,0.00,11.9,21.0,"19:06:40",1
"16/04/26","19:20",0.0,20.1,61.0,1008.1,318.1,1.7,2.9,322.5,0.00,12.4,20.9,"19:12:32",1
"16/04/26","19:30",0.0,19.8,61.5,1008.3,329.1,1.2,2.2,319.1,0.00,12.2,20.8,"19:28:24",1
"16/04/26","19:40",0.0,19.7,60.9,1008.6,330.9,1.5,2.0,341.7,0.00,12.0,20.6,"19:33:04",1
"16/04/26","19:50",0.0,19.6,61.7,1008.3,304.8,1.6,2.4,309.5,0.00,12.1,20.5,"19:46:56",1
"16/04/26","20:00",0.0,19.4,61.8,1008.8,303.8,1.3,1.9,303.5,0.00,11.9,20.4,"19:56:48",1
"16/04/26","20:10",0.0,19.2,62.2,1008.8,301.0,1.0,1.9,308.0,0.00,11.8,20.2,"20:00:32",1
"16/04/26","20:20",0.0,19.0,63.1,1008.8,321.1,0.7,1.3,344.3,0.00,11.9,20.1,"20:19:52",1
"16/04/26","20:30",0.0,18.6,64.4,1009.0,303.5,1.0,2.0,318.8,0.00,11.8,20.1,"20:20:02",1
"16/04/26","20:40",0.0,18.3,66.1,1009.0,325.6,1.8,2.2,331.9,0.00,11.9,19.9,"20:32:16",1
"16/04/26","20:50",0.0,17.9,67.8,1009.3,295.0,1.0,1.9,323.3,0.00,11.9,19.6,"20:40:08",1
"16/04/26","21:00",0.0,17.5,69.4,1009.0,307.6,0.3,1.2,326.9,0.00,11.9,19.7,"20:50:08",1
"16/04/26","21:10",0.0,17.3,70.1,1009.3,292.6,0.6,1.2,313.6,0.00,11.8,19.6,"21:08:40",1
"16/04/26","21:20",0.0,17.1,70.9,1009.3,298.2,1.1,1.7,310.4,0.00,11.8,19.6,"21:10:02",1
"16/04/26","21:30",0.0,17.1,70.8,1009.3,286.3,1.2,2.0,314.3,0.00,11.8,19.3,"21:20:24",1
"16/04/26","21:40",0.0,17.1,70.9,1009.5,298.8,1.6,2.4,318.8,0.00,11.8,19.2,"21:38:48",1
"16/04/26","21:50",0.0,17.1,70.9,1009.5,305.0,1.6,1.9,321.4,0.00,11.8,19.3,"21:43:28",1
"16/04/26","22:00",0.0,16.9,71.1,1009.5,298.8,1.0,1.6,304.8,0.00,11.7,19.1,"21:51:52",1
"16/04/26","22:10",0.0,16.8,72.7,1009.3,293.4,1.3,2.1,330.4,0.00,11.9,18.9,"22:01:36",1
"16/04/26","22:20",0.0,16.8,72.8,1009.3,312.1,1.6,2.7,322.5,0.00,11.9,19.1,"22:14:48",1
"16/04/26","22:30",0.0,16.6,73.5,1009.5,304.0,0.8,1.3,322.2,0.00,11.9,18.8,"22:24:08",1
"16/04/26","22:40",0.0,16.4,74.1,1009.5,311.2,1.3,2.9,334.9,0.00,11.8,18.8,"22:36:32",1
"16/04/26","22:50",0.0,16.4,74.5,1009.5,328.8,1.7,2.6,322.0,0.00,11.9,18.7,"22:44:24",1
"16/04/26","23:00",0.0,16.4,74.8,1009.5,318.7,1.6,2.1,324.6,0.00,12.0,18.7,"22:56:32",1
"16/04/26","23:10",0.0,16.3,74.7,1009.5,278.1,1.0,1.7,319.3,0.00,11.8,18.4,"23:00:24",1
"16/04/26","23:20",0.0,16.1,75.5,1009.3,289.8,1.0,1.7,319.0,0.00,11.8,18.4,"23:18:32",1
"16/04/26","23:30",0.0,16.0,75.8,1009.0,293.3,1.3,2.2,318.5,0.00,11.8,18.4,"23:28:56",1
"16/04/26","23:40",0.0,16.0,76.1,1009.0,301.0,1.3,2.1,311.3,0.00,11.8,18.6,"23:30:24",1
"16/04/26","23:50",0.0,15.9,76.7,1008.8,310.9,1.3,1.8,335.8,0.00,11.9,18.2,"23:44:40",1
"16/04/26","24:00",0.0,15.6,77.6,1008.6,297.8,0.8,1.3,322.0,0.00,11.7,17.9,"23:52:00",1
